Temp
-23 -23 -22 -22 -20 -19 -18 -17 -16 -17 -15 -16 -14 -13 -13 -14 -13 -13 -13 -13 -13 -13 -14 -14 -14 -15 -14 -14 -13 -13 -12 -12 -12 -12 -12 -12 -12 -12 -12 -12 -12 -11 -11 -11
-24 -24 -23 -22 -21 -20 -19 -18 -17 -17 -16 -16 -14 -14 -14 -14 -14 -13 -14 -13 -13 -13 -13 -14 -14 -14 -15 -14 -13 -13 -13 -12 -13 -12 -12 -12 -12 -12 -12 -12 -12 -11 -11 -11
-25 -24 -24 -23 -22 -21 -20 -19 -18 -17 -17 -15 -14 -14 -15 -14 -14 -13 -14 -14 -13 -13 -13 -14 -14 -14 -15 -14 -14 -14 -13 -13 -12 -12 -12 -12 -12 -12 -12 -12 -12 -12 -12 -12
-25 -24 -24 -23 -23 -22 -21 -19 -18 -17 -16 -15 -14 -14 -15 -14 -14 -14 -14 -14 -13 -13 -13 -14 -14 -15 -15 -15 -14 -14 -14 -13 -13 -13 -13 -12 -12 -12 -12 -12 -12 -12 -13 -12
-25 -25 -24 -24 -23 -22 -21 -20 -18 -17 -16 -16 -15 -15 -15 -14 -15 -14 -14 -14 -14 -14 -14 -14 -14 -14 -15 -14 -15 -14 -14 -14 -13 -13 -13 -13 -13 -13 -13 -13 -13 -12 -14 -13
-25 -25 -24 -24 -23 -23 -22 -20 -19 -17 -17 -16 -16 -15 -15 -14 -15 -15 -15 -15 -15 -14 -14 -13 -14 -14 -14 -14 -14 -14 -14 -13 -13 -13 -13 -13 -12 -13 -14 -14 -14 -14 -14 -15
-24 -24 -25 -24 -24 -23 -22 -21 -20 -19 -18 -16 -15 -15 -15 -15 -14 -15 -15 -15 -14 -14 -14 -14 -13 -13 -13 -14 -14 -14 -13 -13 -13 -12 -13 -12 -13 -13 -13 -14 -14 -14 -14 -14
-25 -24 -24 -24 -24 -23 -22 -22 -21 -19 -17 -16 -16 -16 -15 -15 -15 -15 -16 -15 -15 -15 -14 -14 -14 -14 -14 -14 -14 -13 -13 -13 -13 -12 -12 -12 -13 -13 -14 -14 -14 -14 -15 -14
-25 -24 -24 -24 -24 -23 -23 -22 -21 -19 -18 -16 -16 -16 -15 -15 -15 -15 -15 -15 -15 -14 -14 -13 -14 -14 -14 -14 -13 -14 -13 -13 -13 -12 -12 -12 -13 -14 -13 -14 -14 -14 -14 -14
-24 -24 -24 -24 -24 -23 -23 -22 -21 -20 -18 -17 -17 -16 -15 -15 -15 -15 -15 -15 -14 -14 -14 -14 -14 -14 -14 -14 -14 -14 -13 -13 -13 -13 -13 -13 -14 -13 -14 -14 -14 -14 -14 -14
-23 -24 -24 -24 -24 -23 -23 -22 -21 -20 -19 -18 -18 -17 -16 -16 -16 -15 -15 -15 -14 -15 -14 -14 -14 -14 -14 -14 -14 -13 -13 -13 -12 -12 -13 -13 -13 -14 -14 -14 -14 -14 -14 -15
-23 -24 -24 -24 -24 -24 -23 -22 -22 -21 -20 -19 -18 -18 -17 -17 -16 -16 -16 -15 -15 -15 -15 -15 -15 -14 -14 -14 -14 -14 -13 -12 -12 -13 -13 -13 -14 -14 -14 -14 -14 -15 -15 -16
-25 -24 -24 -24 -24 -24 -23 -23 -22 -22 -21 -20 -19 -18 -18 -17 -16 -16 -15 -16 -15 -15 -16 -16 -15 -14 -14 -14 -14 -14 -13 -13 -13 -13 -14 -14 -14 -15 -15 -15 -15 -15 -16 -16
-29 -26 -25 -24 -24 -24 -23 -23 -22 -22 -22 -22 -19 -19 -18 -17 -16 -16 -16 -16 -16 -15 -16 -16 -14 -14 -14 -14 -14 -14 -14 -13 -13 -13 -13 -13 -14 -15 -15 -15 -15 -16 -16 -17
-32 -29 -26 -25 -24 -24 -23 -23 -22 -22 -22 -21 -19 -19 -19 -17 -17 -17 -16 -16 -16 -16 -16 -15 -14 -14 -14 -14 -14 -14 -13 -13 -13 -13 -13 -13 -14 -15 -15 -15 -16 -16 -17 -17
-32 -30 -27 -25 -25 -24 -24 -23 -23 -22 -22 -21 -20 -19 -19 -17 -17 -17 -17 -16 -16 -16 -16 -15 -14 -15 -14 -14 -14 -14 -13 -13 -13 -13 -13 -13 -15 -15 -15 -15 -16 -16 -17 -18
-30 -28 -26 -26 -25 -24 -24 -23 -23 -22 -22 -21 -20 -19 -19 -18 -17 -17 -17 -17 -16 -16 -16 -15 -15 -15 -14 -14 -14 -14 -14 -13 -13 -13 -13 -14 -15 -15 -15 -16 -16 -17 -17 -17
-29 -27 -26 -25 -25 -24 -24 -24 -23 -23 -22 -22 -20 -19 -19 -19 -18 -18 -18 -17 -16 -16 -15 -15 -15 -15 -14 -13 -14 -14 -14 -13 -13 -13 -14 -14 -15 -15 -15 -16 -16 -16 -17 -18
-29 -27 -26 -25 -25 -24 -24 -24 -24 -23 -23 -22 -20 -20 -19 -19 -18 -18 -18 -17 -17 -16 -15 -15 -15 -14 -13 -14 -14 -14 -14 -14 -14 -14 -14 -14 -15 -15 -15 -16 -16 -16 -17 -17
-27 -26 -26 -25 -24 -24 -24 -24 -24 -23 -23 -22 -21 -20 -19 -19 -19 -18 -17 -16 -17 -16 -15 -15 -14 -14 -14 -14 -15 -14 -14 -14 -14 -14 -14 -15 -15 -15 -15 -16 -16 -17 -17 -17
-26 -25 -25 -25 -25 -25 -26 -25 -25 -24 -23 -22 -21 -20 -19 -19 -18 -17 -17 -17 -16 -16 -15 -15 -14 -14 -15 -15 -15 -14 -14 -14 -14 -15 -15 -15 -15 -15 -16 -16 -16 -17 -17 -17
-27 -26 -26 -27 -26 -26 -27 -26 -24 -24 -22 -21 -21 -20 -19 -18 -18 -18 -18 -17 -17 -15 -15 -15 -13 -15 -15 -15 -15 -14 -14 -14 -14 -15 -15 -15 -15 -15 -16 -16 -17 -17 -17 -17
-30 -30 -28 -28 -27 -27 -26 -25 -24 -23 -21 -21 -20 -18 -18 -18 -18 -18 -17 -17 -16 -15 -15 -14 -15 -16 -15 -15 -15 -14 -14 -14 -14 -15 -15 -15 -15 -16 -16 -17 -17 -17 -17 -17
-30 -29 -28 -28 -27 -26 -25 -24 -23 -21 -21 -20 -19 -18 -18 -18 -18 -18 -17 -16 -15 -14 -14 -14 -16 -16 -15 -15 -15 -14 -14 -14 -15 -15 -15 -15 -16 -16 -17 -17 -17 -17 -17 -17
-29 -27 -27 -27 -25 -26 -24 -23 -21 -21 -20 -20 -19 -20 -18 -18 -17 -17 -16 -15 -15 -13 -14 -16 -16 -15 -15 -15 -15 -14 -14 -15 -15 -15 -15 -15 -16 -16 -17 -17 -17 -17 -17 -17
-28 -27 -27 -26 -26 -25 -23 -22 -22 -21 -21 -21 -21 -19 -19 -18 -18 -17 -16 -15 -14 -15 -16 -16 -16 -15 -15 -15 -14 -14 -15 -15 -15 -15 -15 -15 -16 -17 -17 -17 -17 -17 -17 -17
-27 -26 -26 -25 -25 -25 -23 -23 -21 -21 -22 -21 -20 -19 -19 -18 -18 -16 -15 -14 -16 -16 -16 -16 -16 -15 -15 -15 -14 -15 -15 -15 -15 -15 -15 -16 -17 -17 -17 -17 -18 -17 -18 -18
Height
5607 5618 5631 5644 5657 5670 5683 5693 5705 5722 5729 5739 5746 5755 5764 5773 5778 5784 5789 5792 5795 5797 5799 5801 5802 5806 5808 5812 5816 5819 5822 5825 5830 5832 5834 5836 5837 5839 5839 5838 5838 5834 5834 5837
5594 5605 5618 5631 5642 5655 5666 5678 5691 5704 5714 5725 5738 5746 5756 5764 5772 5778 5784 5787 5790 5792 5793 5796 5797 5798 5802 5806 5810 5813 5816 5818 5822 5823 5828 5829 5829 5831 5831 5830 5829 5827 5826 5828
5582 5593 5605 5618 5629 5640 5651 5664 5671 5687 5704 5717 5730 5738 5748 5755 5764 5771 5778 5782 5785 5788 5789 5791 5793 5794 5796 5800 5803 5807 5808 5811 5814 5816 5819 5822 5821 5822 5823 5822 5821 5821 5820 5818
5568 5579 5592 5605 5617 5627 5637 5648 5659 5679 5695 5709 5719 5727 5740 5746 5755 5764 5771 5776 5781 5784 5785 5786 5789 5791 5792 5794 5796 5798 5800 5804 5807 5809 5811 5812 5813 5814 5814 5814 5814 5810 5814 5807
5556 5567 5579 5592 5605 5614 5626 5639 5652 5671 5686 5699 5707 5718 5729 5740 5749 5759 5766 5774 5776 5778 5780 5783 5785 5787 5788 5789 5791 5792 5794 5799 5800 5803 5804 5805 5805 5806 5808 5806 5805 5802 5798 5799
5543 5555 5568 5581 5593 5604 5617 5631 5644 5658 5673 5686 5695 5710 5726 5735 5743 5752 5761 5766 5768 5772 5775 5777 5780 5782 5784 5786 5787 5788 5791 5793 5794 5796 5795 5793 5795 5800 5797 5794 5794 5790 5788 5787
5531 5543 5556 5570 5582 5595 5609 5622 5634 5646 5660 5673 5690 5704 5714 5725 5734 5742 5751 5756 5761 5767 5770 5773 5776 5778 5780 5782 5784 5787 5788 5788 5788 5788 5789 5787 5792 5790 5789 5786 5784 5783 5781 5777
5517 5530 5544 5558 5572 5585 5599 5612 5623 5634 5651 5667 5678 5694 5706 5714 5725 5731 5739 5747 5754 5758 5762 5767 5771 5775 5778 5779 5781 5783 5783 5783 5782 5781 5781 5783 5784 5780 5779 5777 5780 5776 5772 5768
5504 5518 5532 5547 5563 5575 5589 5604 5615 5627 5642 5658 5671 5686 5696 5706 5715 5724 5730 5738 5743 5749 5756 5761 5766 5770 5774 5774 5777 5778 5778 5777 5777 5776 5775 5776 5775 5772 5770 5770 5771 5766 5764 5761
5492 5506 5522 5536 5552 5566 5581 5595 5607 5621 5635 5648 5658 5674 5688 5697 5706 5716 5725 5731 5737 5744 5750 5756 5760 5765 5769 5771 5773 5773 5773 5773 5773 5769 5768 5770 5766 5766 5765 5765 5765 5759 5756 5752
5482 5495 5509 5527 5544 5558 5573 5589 5601 5613 5624 5637 5649 5663 5674 5684 5692 5707 5717 5724 5732 5739 5744 5750 5754 5759 5763 5767 5767 5768 5768 5768 5766 5765 5764 5765 5763 5761 5760 5758 5754 5751 5748 5744
5472 5484 5500 5519 5535 5550 5565 5581 5595 5605 5615 5634 5642 5657 5668 5680 5693 5703 5712 5722 5730 5735 5739 5745 5748 5751 5757 5760 5763 5762 5765 5763 5762 5762 5760 5757 5755 5754 5753 5750 5747 5744 5740 5735
5458 5473 5490 5508 5525 5542 5559 5572 5586 5597 5611 5623 5639 5653 5665 5675 5681 5692 5703 5712 5720 5726 5732 5736 5738 5745 5751 5754 5757 5758 5758 5757 5756 5754 5753 5750 5748 5747 5745 5743 5739 5736 5732 5728
5445 5459 5478 5498 5516 5533 5550 5564 5579 5591 5606 5621 5634 5645 5657 5667 5675 5686 5697 5704 5711 5718 5723 5727 5734 5740 5744 5748 5750 5752 5753 5750 5748 5748 5745 5743 5742 5740 5738 5734 5731 5727 5723 5720
5440 5452 5470 5490 5507 5525 5541 5555 5569 5585 5602 5618 5627 5637 5649 5661 5672 5680 5690 5697 5703 5711 5716 5721 5730 5734 5737 5741 5745 5746 5745 5745 5743 5741 5738 5736 5736 5734 5730 5726 5723 5718 5714 5710
5437 5449 5465 5483 5499 5516 5531 5546 5562 5580 5597 5606 5618 5630 5641 5655 5664 5674 5682 5690 5697 5703 5710 5718 5723 5727 5730 5735 5739 5739 5737 5737 5736 5735 5732 5730 5729 5727 5723 5719 5715 5711 5706 5703
5435 5448 5463 5477 5492 5509 5527 5549 5563 5580 5591 5601 5614 5620 5629 5643 5654 5664 5673 5683 5690 5698 5705 5711 5716 5720 5723 5728 5733 5731 5731 5731 5730 5728 5725 5724 5723 5720 5716 5711 5706 5702 5698 5696
5433 5445 5459 5473 5489 5506 5525 5544 5556 5570 5582 5593 5600 5610 5621 5633 5646 5656 5666 5676 5685 5692 5698 5705 5708 5713 5716 5723 5727 5724 5724 5725 5724 5721 5719 5717 5715 5711 5707 5703 5699 5695 5691 5689
5430 5442 5457 5469 5486 5508 5528 5537 5549 5563 5576 5583 5591 5605 5616 5630 5642 5650 5661 5670 5678 5686 5692 5698 5703 5706 5711 5720 5720 5717 5718 5719 5717 5713 5713 5710 5707 5704 5700 5695 5691 5688 5685 5682
5430 5442 5455 5473 5492 5507 5516 5528 5538 5552 5558 5571 5591 5602 5614 5627 5637 5646 5657 5665 5674 5679 5686 5691 5692 5700 5708 5712 5712 5712 5713 5711 5709 5707 5706 5703 5700 5697 5692 5688 5684 5681 5678 5675
5430 5444 5457 5471 5484 5494 5507 5517 5528 5538 5552 5569 5586 5597 5613 5623 5635 5644 5651 5660 5667 5674 5681 5683 5687 5698 5704 5702 5704 5706 5706 5704 5702 5701 5698 5696 5693 5688 5684 5680 5677 5675 5672 5670
5430 5442 5455 5465 5474 5485 5496 5507 5521 5533 5549 5566 5585 5600 5611 5621 5632 5639 5645 5653 5660 5667 5674 5676 5684 5696 5697 5694 5696 5698 5699 5697 5695 5694 5691 5689 5684 5680 5677 5673 5671 5668 5666 5665
5427 5439 5453 5463 5466 5474 5487 5501 5515 5527 5544 5567 5585 5597 5605 5613 5623 5631 5639 5646 5653 5661 5666 5671 5682 5687 5688 5688 5690 5691 5691 5690 5688 5686 5684 5681 5676 5673 5670 5667 5665 5664 5662 5660
5426 5438 5449 5456 5463 5472 5488 5505 5524 5545 5560 5573 5587 5595 5601 5609 5618 5624 5631 5639 5647 5654 5659 5668 5676 5680 5678 5681 5683 5685 5684 5683 5681 5679 5675 5672 5669 5665 5662 5662 5660 5659 5656 5654
5428 5439 5448 5453 5468 5483 5498 5514 5530 5544 5559 5570 5580 5588 5597 5604 5612 5619 5628 5636 5643 5650 5657 5665 5669 5671 5672 5674 5676 5677 5677 5676 5673 5670 5667 5664 5660 5658 5657 5656 5654 5653 5650 5648
5426 5435 5444 5458 5472 5482 5497 5513 5530 5543 5555 5564 5572 5582 5590 5596 5606 5616 5625 5633 5640 5647 5654 5659 5662 5664 5666 5669 5670 5671 5669 5667 5664 5662 5659 5656 5653 5652 5652 5650 5648 5646 5643 5640
5432 5442 5450 5462 5479 5491 5503 5516 5531 5543 5552 5563 5573 5581 5588 5599 5607 5617 5623 5630 5637 5643 5649 5651 5654 5657 5661 5663 5663 5662 5661 5659 5657 5654 5652 5649 5647 5646 5645 5643 5641 5639 5636 5632
Wind_Speed
63 65 65 68 77 75 73 70 68 67 47 58 56 50 47 43 37 32 27 20 17 18 23 21 20 30 42 39 33 29 30 33 30 28 27 29 30 29 30 33 34 38 40 38
62 64 64 63 66 72 73 72 70 70 62 59 52 51 44 42 39 33 30 24 19 19 20 19 18 24 39 36 35 28 32 35 31 29 31 31 32 32 34 37 40 42 43 43
61 62 63 61 59 66 71 73 75 73 70 64 55 55 44 44 42 36 32 28 23 21 17 14 14 15 35 42 46 40 34 32 35 33 37 36 35 36 38 39 41 40 42 41
61 61 63 63 61 60 68 74 76 72 71 66 68 56 51 42 42 36 34 33 24 21 17 16 15 16 19 30 39 47 55 46 34 31 33 37 37 37 37 36 40 48 41 50
60 63 64 64 62 63 65 73 75 72 69 66 66 60 57 53 45 39 37 31 27 23 20 18 17 20 20 20 21 23 28 33 41 53 55 55 50 42 40 38 47 56 54 47
56 64 65 66 64 64 63 71 72 74 71 69 65 59 49 45 43 39 37 34 31 26 23 21 21 20 19 15 18 22 24 26 25 25 27 31 33 33 37 42 41 47 45 47
57 67 65 68 67 65 64 67 68 73 73 74 63 55 48 50 45 40 41 39 34 30 25 22 21 19 17 15 14 13 12 15 19 23 26 30 27 30 34 38 38 37 36 37
57 66 68 69 67 67 63 64 66 73 76 74 75 60 55 47 45 47 44 39 36 34 31 27 24 20 17 15 14 12 13 16 20 23 24 24 23 29 29 31 28 32 35 37
60 66 72 68 68 68 65 63 65 73 75 74 73 62 51 52 52 50 49 43 40 41 32 30 25 22 18 17 12 14 15 18 20 21 23 20 20 23 27 30 29 34 37 39
65 64 76 70 69 67 65 64 67 69 76 78 76 73 55 46 45 46 47 44 43 39 34 30 26 25 22 17 14 16 17 18 19 22 23 17 22 22 22 25 28 31 34 38
53 70 70 75 70 69 67 64 66 70 75 80 75 77 70 56 37 41 46 46 42 38 33 29 28 26 24 16 17 17 17 16 17 19 19 17 20 24 25 26 29 32 35 37
56 62 72 80 71 71 69 66 65 68 73 71 73 69 70 64 43 47 44 42 36 35 31 28 29 29 21 20 17 19 16 17 16 20 21 24 25 26 27 30 33 34 35 35
63 66 75 79 75 73 70 68 66 65 59 64 68 63 55 63 48 39 47 49 45 38 33 36 37 30 24 22 19 17 17 17 17 20 22 28 29 28 30 32 33 34 34 35
59 70 77 78 79 73 72 68 67 65 57 44 54 65 67 67 50 43 36 46 43 37 36 38 34 31 27 24 20 17 16 18 20 21 26 29 30 31 32 34 35 35 35 35
51 61 76 76 79 75 74 68 69 65 58 49 41 63 68 72 50 47 38 41 42 39 37 37 33 28 26 26 20 15 17 17 20 23 27 30 30 31 33 36 36 36 37 36
46 56 69 72 75 75 73 68 68 64 58 67 61 57 60 63 41 40 55 32 37 44 36 33 31 28 29 23 15 16 19 20 24 25 27 30 29 31 34 34 34 35 36 34
47 54 62 67 70 74 72 64 66 62 56 60 59 46 59 71 48 45 52 46 34 42 39 34 30 29 28 20 12 18 21 23 25 25 28 30 30 32 32 34 35 34 34 32
48 53 59 63 68 73 69 63 67 69 64 59 69 53 55 65 61 47 48 53 42 37 37 30 29 33 27 19 14 24 24 24 24 27 30 30 31 31 32 33 33 34 32 30
49 53 56 59 65 68 61 65 68 68 70 70 79 65 55 52 64 55 46 52 43 40 41 35 33 34 26 18 19 25 25 23 26 29 29 31 31 31 33 33 34 32 28 27
51 53 56 58 58 60 63 68 71 75 71 68 60 62 69 62 55 54 50 50 44 39 37 35 36 28 25 22 25 24 24 25 28 28 29 31 30 32 33 34 34 29 26 23
52 54 57 60 63 65 63 62 68 75 75 59 53 44 50 62 54 56 46 42 49 43 34 34 36 27 23 30 27 23 23 25 26 29 30 31 32 32 33 33 31 25 20 19
49 52 55 58 64 65 68 65 66 67 63 59 49 40 42 50 46 52 55 49 49 41 32 35 35 25 23 30 27 24 24 27 29 30 30 30 30 32 33 32 25 19 19 20
44 40 40 41 64 72 74 68 66 71 66 57 54 53 46 46 48 47 39 33 40 46 39 38 32 24 28 32 31 28 27 31 31 31 31 32 32 33 33 25 20 19 20 21
43 49 42 44 65 71 75 66 63 60 61 57 62 51 44 45 43 44 40 37 39 43 39 31 22 26 34 32 30 28 30 31 31 31 30 32 32 33 26 21 20 21 21 23
51 39 30 50 62 60 73 73 74 61 55 55 60 63 50 41 37 35 31 32 36 33 25 18 26 30 29 30 28 28 29 29 28 28 30 30 32 28 22 21 20 22 23 26
52 49 38 58 66 61 68 72 72 72 62 54 55 65 63 49 34 31 29 26 31 32 22 22 27 29 30 28 26 26 26 24 26 28 30 31 30 22 21 21 21 22 25 28
44 35 42 55 58 62 65 72 72 71 60 47 49 62 64 56 42 33 31 34 26 22 26 30 30 31 27 24 24 24 25 26 27 29 30 31 24 20 21 21 22 23 27 31
Wind_Direction
225 221 218 217 216 215 212 213 211 207 202 216 224 228 228 225 223 222 228 225 226 218 226 236 243 231 229 233 234 237 242 244 245 248 253 257 260 262 265 270 274 275 281 281
223 220 217 215 218 215 212 212 210 209 204 207 209 220 214 220 222 220 224 226 226 224 219 228 241 230 217 227 235 238 241 243 240 247 253 256 260 262 262 265 270 275 280 288
222 221 217 214 215 217 214 210 211 208 207 206 208 224 226 220 220 221 221 225 224 224 218 224 232 239 226 230 232 242 246 247 246 249 251 252 257 262 266 269 274 279 279 285
221 220 214 213 213 213 215 211 212 207 206 204 210 219 215 213 216 219 222 223 220 221 214 216 212 219 223 232 241 242 243 247 251 252 260 260 262 266 268 270 278 279 284 284
221 220 213 210 211 212 213 213 212 207 205 206 208 214 217 222 221 225 222 222 219 220 218 218 209 216 226 235 236 235 241 250 255 256 259 260 264 267 268 269 275 281 279 279
221 217 214 210 209 211 211 212 211 207 204 202 206 208 210 218 228 216 214 211 215 216 219 216 211 220 228 231 237 246 256 261 261 263 264 264 267 274 271 272 273 276 280 277
218 216 215 210 209 209 208 211 212 210 204 203 201 201 209 210 210 203 208 209 214 218 221 220 214 213 217 219 225 238 250 264 268 268 266 265 272 273 272 271 273 280 284 284
221 213 213 211 209 208 206 208 212 210 204 202 205 204 208 204 211 211 200 207 210 216 217 213 213 207 207 213 218 244 268 275 278 278 275 278 280 277 277 277 278 283 283 283
219 211 210 211 208 207 204 207 211 209 206 200 205 200 200 196 199 207 206 206 210 216 214 213 213 216 209 220 231 255 266 276 285 288 286 291 290 279 279 282 282 278 282 283
213 209 206 210 207 207 204 205 210 210 205 203 208 201 197 190 200 209 210 210 211 214 215 212 213 222 227 234 240 252 266 278 289 288 291 298 283 286 287 290 292 291 292 291
212 208 207 206 207 206 203 204 209 209 209 206 210 207 209 202 201 204 205 208 211 213 215 216 218 228 235 241 248 255 271 284 289 297 296 289 285 287 292 294 296 298 298 298
214 212 206 202 207 204 203 203 207 211 213 211 212 210 216 213 207 205 206 210 206 212 215 219 228 237 242 247 245 258 270 286 289 290 291 292 292 291 291 297 300 301 301 301
215 211 205 201 204 204 201 202 203 210 216 215 212 208 206 209 188 189 205 209 209 214 213 214 223 231 235 244 245 248 270 285 296 292 290 289 292 296 300 304 304 302 304 303
205 208 203 200 202 203 201 201 202 205 207 206 207 206 201 208 203 207 214 203 205 211 217 219 222 231 234 240 237 252 275 286 288 292 288 291 292 299 304 307 307 305 305 305
193 203 198 197 199 201 201 201 201 201 200 192 202 207 203 207 214 226 210 207 206 218 218 219 222 229 235 235 239 257 275 283 290 289 294 294 296 301 306 307 308 306 306 305
191 197 194 195 198 199 199 200 200 196 195 198 200 205 207 199 196 212 215 209 210 214 218 220 221 229 233 232 239 264 278 291 296 290 294 294 297 303 307 308 308 306 303 302
187 188 189 194 196 198 199 197 197 191 190 199 190 191 206 200 198 197 217 214 217 220 225 225 223 227 235 236 252 266 277 288 287 290 293 295 303 309 309 307 306 303 303 301
186 185 188 192 194 197 196 196 197 191 195 196 200 190 191 204 202 202 212 219 222 216 221 220 227 227 235 236 262 269 280 282 283 287 292 302 309 310 307 307 307 304 304 303
187 186 187 190 192 194 194 196 195 193 194 204 201 200 199 203 208 209 208 216 219 214 218 227 231 228 234 241 252 266 272 280 285 287 298 305 305 306 309 310 310 308 306 305
187 186 188 189 189 189 193 195 193 187 192 203 205 213 212 207 206 206 200 214 218 210 218 224 225 223 230 244 250 261 272 282 286 295 299 300 303 307 310 312 311 308 308 309
185 185 184 184 185 185 186 193 195 197 200 200 189 199 203 209 212 207 204 211 217 217 229 234 225 213 229 245 252 258 272 282 290 293 297 302 307 308 311 312 309 306 306 306
174 178 179 182 183 183 181 189 186 193 195 194 188 193 202 206 212 213 216 222 223 221 230 232 221 207 224 244 254 262 274 283 288 294 296 302 310 310 309 309 304 300 302 304
157 166 158 190 184 184 181 186 192 187 187 187 183 176 174 177 193 198 194 204 217 223 230 227 225 224 231 241 251 262 275 283 291 294 297 302 305 306 306 302 295 295 298 304
156 163 168 199 191 187 186 179 184 184 185 183 178 176 174 175 188 186 192 196 207 220 228 225 214 212 230 241 252 264 272 284 293 297 298 301 303 304 298 289 289 294 299 305
154 161 206 199 189 187 188 184 180 180 184 183 193 202 190 176 176 180 186 201 212 218 222 206 210 221 237 248 258 266 278 289 294 297 299 300 302 296 285 283 289 294 300 304
179 179 184 191 184 185 183 181 181 184 183 189 196 199 202 199 194 180 189 204 210 218 219 215 223 231 241 249 258 271 284 290 296 296 297 300 297 284 279 284 290 296 303 313
170 187 193 188 187 190 182 181 185 185 189 197 200 201 209 210 210 206 201 210 222 228 229 218 225 235 241 250 264 278 287 293 294 295 298 298 284 275 278 286 293 301 309 314